CW8541 Weather Reports


Display with metric or nautical units.
time (UTC)temp
F
wind
direction
speed
MPH
gust
MPH
rain 1hr
in
rain 24hr
in
rain mn
in
humidity
%
barometer
mb
20181113000509 60 56 6.0 0.0 0.00 0.00 0.00 8 1021.5
20181113000007 61 83 7.0 0.0 0.00 0.00 0.00 8 1021.4
20181112235507 61 65 8.0 0.0 0.00 0.00 0.00 8 1021.2
20181112235007 61 39 3.0 0.0 0.00 0.00 0.00 8 1021.1
20181112234507 62 38 6.0 0.0 0.00 0.00 0.00 8 1020.9
20181112234008 62 103 14.0 0.0 0.00 0.00 0.00 8 1020.6
20181112233507 62 72 5.0 0.0 0.00 0.00 0.00 8 1020.6
20181112233007 62 47 7.0 0.0 0.00 0.00 0.00 8 1020.7
20181112232506 62 61 7.0 0.0 0.00 0.00 0.00 8 1020.7
20181112232007 63 74 9.0 0.0 0.00 0.00 0.00 8 1020.3
20181112231507 63 93 5.0 0.0 0.00 0.00 0.00 8 1020.5
20181112231007 63 115 8.0 0.0 0.00 0.00 0.00 8 1020.6
20181112230507 63 63 4.0 0.0 0.00 0.00 0.00 8 1020.3
20181112230007 63 44 3.0 0.0 0.00 0.00 0.00 8 1020.2
20181112225507 63 39 8.0 0.0 0.00 0.00 0.00 8 1020.2
20181112225007 64 78 9.0 0.0 0.00 0.00 0.00 8 1020.1
20181112224507 63 91 5.0 0.0 0.00 0.00 0.00 8 1020.1
20181112224007 63 28 8.0 0.0 0.00 0.00 0.00 8 1020.3
20181112223507 64 94 0.0 0.0 0.00 0.00 0.00 8 1020.2
20181112223007 64 90 5.0 0.0 0.00 0.00 0.00 8 1020.2
20181112222507 63 99 4.0 0.0 0.00 0.00 0.00 8 1020.1
20181112222006 64 31 3.0 0.0 0.00 0.00 0.00 8 1020.0
20181112221506 63 112 8.0 0.0 0.00 0.00 0.00 8 1019.8
20181112221007 63 30 7.0 0.0 0.00 0.00 0.00 8 1019.9
20181112220507 64 56 3.0 0.0 0.00 0.00 0.00 8 1019.9
20181112220007 64 45 4.0 0.0 0.00 0.00 0.00 8 1019.9
20181112215507 63 81 8.0 0.0 0.00 0.00 0.00 7 1019.8
20181112215007 63 64 6.0 0.0 0.00 0.00 0.00 8 1019.7
20181112214507 63 61 10.0 0.0 0.00 0.00 0.00 8 1019.8
20181112214007 63 15 4.0 0.0 0.00 0.00 0.00 8 1019.8
20181112213507 62 38 3.0 0.0 0.00 0.00 0.00 8 1019.8
20181112213007 63 71 5.0 0.0 0.00 0.00 0.00 8 1020.0
20181112212506 63 64 6.0 0.0 0.00 0.00 0.00 8 1019.9
20181112212006 64 75 6.0 0.0 0.00 0.00 0.00 7 1020.1
20181112211507 64 81 5.0 0.0 0.00 0.00 0.00 8 1020.1
20181112211007 63 28 6.0 0.0 0.00 0.00 0.00 8 1019.9
20181112210507 62 120 5.0 0.0 0.00 0.00 0.00 8 1019.7
20181112210008 63 81 13.0 0.0 0.00 0.00 0.00 8 1019.7
20181112205506 63 92 8.0 0.0 0.00 0.00 0.00 8 1020.0
20181112205006 63 90 11.0 0.0 0.00 0.00 0.00 7 1020.0
20181112204507 64 69 7.0 0.0 0.00 0.00 0.00 8 1020.0
20181112204006 62 83 12.0 0.0 0.00 0.00 0.00 7 1019.9
20181112203507 65 75 2.0 0.0 0.00 0.00 0.00 7 1020.0
20181112203007 63 68 2.0 0.0 0.00 0.00 0.00 7 1020.1
20181112202507 64 47 4.0 0.0 0.00 0.00 0.00 8 1020.2
20181112202007 63 93 9.0 0.0 0.00 0.00 0.00 8 1020.3
20181112201507 62 40 2.0 0.0 0.00 0.00 0.00 8 1020.5
20181112201007 63 65 7.0 0.0 0.00 0.00 0.00 8 1020.4
20181112200506 64 76 7.0 0.0 0.00 0.00 0.00 7 1020.5
20181112200007 62 78 7.0 0.0 0.00 0.00 0.00 8 1020.3
20181112195507 64 92 7.0 0.0 0.00 0.00 0.00 7 1020.5
20181112195007 62 83 10.0 0.0 0.00 0.00 0.00 8 1020.6
20181112194507 62 64 11.0 0.0 0.00 0.00 0.00 8 1020.4
20181112194007 63 85 6.0 0.0 0.00 0.00 0.00 7 1020.6
20181112193507 61 43 7.0 0.0 0.00 0.00 0.00 7 1020.8
20181112193007 64 71 2.0 0.0 0.00 0.00 0.00 8 1020.7
20181112192507 62 19 9.0 0.0 0.00 0.00 0.00 7 1020.8
20181112192008 63 65 9.0 0.0 0.00 0.00 0.00 8 1020.8
20181112191506 62 88 5.0 0.0 0.00 0.00 0.00 8 1021.0
20181112191007 63 71 4.0 0.0 0.00 0.00 0.00 8 1021.0
20181112190507 61 22 10.0 0.0 0.00 0.00 0.00 8 1020.8
20181112190007 61 33 9.0 0.0 0.00 0.00 0.00 8 1020.9
20181112185507 62 63 8.0 0.0 0.00 0.00 0.00 8 1020.8
20181112185007 61 38 6.0 0.0 0.00 0.00 0.00 8 1020.9
20181112184507 61 114 7.0 0.0 0.00 0.00 0.00 8 1021.1
20181112184007 61 122 6.0 0.0 0.00 0.00 0.00 8 1021.2
20181112183507 62 89 4.0 0.0 0.00 0.00 0.00 8 1021.5
20181112183007 61 88 4.0 0.0 0.00 0.00 0.00 8 1021.7
20181112182507 60 334 12.0 0.0 0.00 0.00 0.00 8 1021.6
20181112182007 60 39 7.0 0.0 0.00 0.00 0.00 8 1022.0
20181112181506 60 69 13.0 0.0 0.00 0.00 0.00 8 1022.0
20181112181007 59 44 10.0 0.0 0.00 0.00 0.00 8 1022.0
20181112180506 61 71 6.0 0.0 0.00 0.00 0.00 8 1021.9
20181112180007 61 88 12.0 0.0 0.00 0.00 0.00 8 1022.2
20181112175506 61 58 8.0 0.0 0.00 0.00 0.00 8 1022.0
20181112175008 60 75 9.0 0.0 0.00 0.00 0.00 8 1021.8
20181112174507 60 102 8.0 0.0 0.00 0.00 0.00 8 1022.2
20181112174003 60 44 7.0 0.0 0.00 0.00 0.00 8 1021.9
20181112163007 59 60 7.0 0.0 0.00 0.00 0.00 8 1022.2
20181112162507 58 70 6.0 0.0 0.00 0.00 0.00 8 1022.1
20181112162007 59 95 8.0 0.0 0.00 0.00 0.00 8 1022.4
20181112161507 56 31 10.0 0.0 0.00 0.00 0.00 8 1022.3
20181112161005 57 13 7.0 0.0 0.00 0.00 0.00 8 1022.4
20181112160506 57 77 5.0 0.0 0.00 0.00 0.00 8 1022.0
20181112160006 55 39 12.0 0.0 0.00 0.00 0.00 8 1022.1
20181112155507 55 323 11.0 0.0 0.00 0.00 0.00 8 1022.1
20181112155007 55 25 9.0 0.0 0.00 0.00 0.00 8 1022.5
20181112154506 55 7 9.0 0.0 0.00 0.00 0.00 8 1022.7
20181112154007 55 13 12.0 0.0 0.00 0.00 0.00 8 1022.7
20181112153507 56 46 6.0 0.0 0.00 0.00 0.00 8 1022.6
20181112152944 55 304 3.0 0.0 0.00 0.00 0.00 8 1022.4